Regional Weather Roundup
Issued by NWS Little Rock, AR

Home | Current Version | Previous Version | Text Only | Print | Product List | Glossary On
Versions: 1 2 3 4 5 6 7 8 9 10 11 12 13 14 15 16 17 18 19 20 21 22 23 24 25 26 27 28 29 30 31 32
000
ASUS44 KLZK 250205
RWRLZK

WEATHER ROUNDUP FOR ARKANSAS
NATIONAL WEATHER SERVICE LITTLE ROCK AR
900 PM CDT WED MAY 24 2017

NOTE: "FAIR" INDICATES FEW OR NO CLOUDS BELOW 12,000 FEET WITH NO
SIGNIFICANT WEATHER AND/OR OBSTRUCTIONS TO VISIBILITY.

ARZ001-003-010-029-250300-
NORTHWEST ARKANSAS

CITY           SKY/WX    TMP DP  RH WIND       PRES   REMARKS
FAYETTEVILLE   MOCLDY    56  50  80 CALM      29.71R
FORT SMITH     CLEAR     60  47  61 W6        29.70S
HARRISON       MOCLDY    52  52 100 W3        29.70S
BENTONVILLE    CLEAR     57  48  72 CALM      29.71S
ROGERS         CLEAR     57  49  74 W3        29.72R
SILOAM SPGS    CLEAR     57  45  62 CALM      29.71R
HIGHFILL       CLEAR     57  49  74 W3        29.71S
SPRINGDALE     PTCLDY    59  48  67 NW3       29.72S
$$

ARZ004-005-016-250300-
NORTH CENTRAL ARKANSAS

CITY           SKY/WX    TMP DP  RH WIND       PRES   REMARKS
BATESVILLE     CLEAR     55  48  76 W7        29.66S
FLIPPIN        CLEAR     55  46  71 W6        29.66R
MTN HOME       CLEAR     54  51  90 CALM      29.67R
$$

ARZ040-041-250300-
WEST CENTRAL ARKANSAS

CITY           SKY/WX    TMP DP  RH WIND       PRES   REMARKS
MENA           PTCLDY    61  50  67 NW6       29.72S
MOUNT IDA      CLEAR     57  49  74 CALM      29.69R
$$

ARZ009-017-025-026-028-250300-
NORTHEAST ARKANSAS

CITY           SKY/WX    TMP DP  RH WIND       PRES   REMARKS
JONESBORO      PTCLDY    58  49  72 W7        29.62R
WALNUT RIDGE   CLEAR     57  46  67 W8        29.63S
BLYTHEVILLE    CLEAR     59  51  75 W7        29.61R
$$

ARZ022-023-033-042-044-250300-
CENTRAL ARKANSAS

CITY           SKY/WX    TMP DP  RH WIND       PRES   REMARKS
LITTLE ROCK    LGT RAIN  64  49  57 N15G21    29.69R
N LITTLE ROCK    N/A     58  52  81 N6        29.70R
JACKSONVILLE   CLOUDY    59  53  80 W5        29.68S
CONWAY           N/A     59  55  88 CALM      29.68S
SEARCY         MOCLDY    59  51  75 CALM      29.68R
HOT SPRINGS    CLEAR     62  49  62 W3        29.70R
RUSSELLVILLE   PTCLDY    56  52  86 CALM      29.69S
CLINTON        FAIR      55  52  88 CALM      29.69R
$$

ARZ036-250300-
EAST ARKANSAS

CITY           SKY/WX    TMP DP  RH WIND       PRES   REMARKS
WEST MEMPHIS   LGT RAIN  59  52  77 CALM      29.62R
$$

ARZ050-053-066-070-073-250300-
SOUTHWEST ARKANSAS

CITY           SKY/WX    TMP DP  RH WIND       PRES   REMARKS
ARKADELPHIA    FAIR      59  54  83 W3        29.71R
CAMDEN         CLEAR     59  50  72 CALM      29.71R
TEXARKANA      CLEAR     58  51  78 N3        29.72S
EL DORADO      CLEAR     58  54  86 CALM      29.72R
DE QUEEN       CLEAR     58  52  80 CALM      29.70S
$$

ARZ056-057-069-250300-
SOUTHEAST ARKANSAS

CITY           SKY/WX    TMP DP  RH WIND       PRES   REMARKS
PINE BLUFF     CLEAR     61  50  67 W3        29.69R
STUTTGART      CLOUDY    63  45  51 NW7       29.67R
MONTICELLO     CLEAR     60  51  72 W6        29.68R

$$






USA.gov is the U.S. government's official web portal to all federal, state and local government web resources and services.